[[{"header":{"parameterUnit":"m.s-1","parameterCategory":1,"la1":30.2991,"la2":30.254,"lo1":-89.0895,"lo2":-89.0444,"dy":0.0017,"dx":0.0017,"nx":28,"ny":28,"refTime":"2025-03-18T21:00:00:Z","depth":0,"parameterNumber":2,"parameterNumberName":"U-component_of_WINDS"},"data":[0,0,0,0,0,0,0,0,0,0,0,0,0,0,0,0,0,0,0,0,0,0,0,0,0,0,0,0,0,0,0,0,0,0,0,0,0,0,0,0,0,0,0,0,0,0,0,0,0,0,0,0,0,0,0,0,0,0,-2.2405,-2.2405,0,-2.2409,-2.2409,-2.2409,-2.2376,-2.2375,-2.2374,-2.2373,-2.2377,-2.2378,-2.2379,0,0,0,0,0,0,0,0,0,0,0,0,0,-2.2371,-2.2372,-2.2405,-2.2405,-2.2405,-2.2409,-2.2409,-2.2409,-2.2376,-2.2375,-2.2374,-2.2373,-2.2377,-2.2378,-2.2379,0,0,0,0,0,0,0,0,0,0,0,0,0,-2.2382,-2.2372,-2.2405,-2.2389,-2.2388,-2.2409,-2.2409,-2.2409,-2.2376,-2.2375,-2.2373,-2.2372,-2.2377,-2.2378,-2.2379,-2.2416,0,0,-2.2384,-2.2385,0,0,0,0,0,0,0,0,-2.2381,-2.2383,-2.2391,-2.239,-2.2389,-2.239,-2.2398,-2.2411,-2.2377,-2.2381,-2.2373,-2.2371,-2.2383,-2.2384,-2.2387,-2.2416,-2.2416,-2.2384,-2.2385,-2.2386,-2.2386,0,0,0,0,0,0,0,-2.238,-2.2383,-2.2406,-2.2392,-2.239,-2.2382,-2.2382,-2.2401,-2.2389,-2.238,-2.2378,-2.2379,-2.2382,-2.2386,-2.2387,-2.2416,-2.2384,-2.2385,-2.2386,-2.2387,-2.2476,-2.2477,0,0,0,0,0,0,-2.2382,-2.2382,-2.2406,-2.2407,-2.2381,-2.2384,-2.2384,-2.2391,-2.2389,-2.2387,-2.238,-2.2377,-2.2384,-2.2386,-2.2387,-2.2429,-2.2386,-2.2387,-2.2388,-2.2474,-2.2476,-2.2478,0,0,0,0,0,0,-2.2381,-2.2384,-2.2406,-2.2394,-2.2396,-2.2386,-2.2395,-2.2392,-2.2396,-2.2389,-2.2387,-2.2386,-2.2383,-2.2385,-2.2409,-2.2429,-2.2388,-2.2389,-2.2472,-2.2475,-2.2477,-2.2514,0,0,0,0,0,0,-2.238,-2.2384,-2.2397,-2.2394,-2.2397,-2.2427,-2.2396,-2.2393,-2.2399,-2.2395,-2.2394,-2.2393,-2.2382,-2.2407,-2.2411,-2.243,-2.239,-2.2471,-2.2473,-2.2476,-2.2511,-2.2517,-2.2523,0,0,0,0,0,-2.2379,-2.2408,-2.2398,-2.2401,-2.2413,-2.2429,-2.243,-2.2417,-2.24,-2.2414,-2.2409,-2.2393,-2.2427,-2.241,-2.2413,-2.2434,-2.2469,-2.2473,-2.2476,-2.2508,-2.2516,-2.2523,0,0,0,0,0,0,-2.2413,-2.2407,-2.2396,-2.2425,-2.2427,-2.2423,-2.2439,-2.2426,-2.2434,-2.243,-2.2415,-2.2415,-2.2441,-2.244,-2.2421,-2.2469,-2.2445,-2.2449,-2.2469,-2.2476,-2.2482,-2.2481,-2.2391,0,0,0,0,0,-2.2424,-2.2437,-2.2431,-2.2457,-2.2459,-2.2449,-2.2455,-2.2446,-2.2448,-2.2449,-2.2446,-2.2449,-2.2461,-2.2469,-2.2479,-2.2512,-2.2511,-2.2528,-2.2534,-2.2539,-2.2542,-2.2559,-2.2567,-2.2489,-2.2489,-2.2489,0,0,-2.2446,-2.2445,-2.2454,-2.2464,-2.2464,-2.2479,-2.245,-2.2466,-2.2476,-2.2452,-2.2473,-2.2472,-2.2475,-2.2503,-2.2516,-2.2503,-2.2564,-2.2543,-2.2547,-2.2547,-2.2564,-2.2571,-2.2578,-2.2491,-2.2491,-2.249,0,0,-2.2494,-2.2494,-2.2515,-2.2517,-2.2519,-2.2513,-2.2518,-2.2517,-2.2514,-2.2536,-2.2518,-2.2531,-2.2551,-2.2554,-2.2558,-2.2609,-2.2593,-2.2613,-2.2643,-2.266,-2.2666,-2.2671,-2.2689,-2.2695,-2.2616,-2.2616,-2.2616,0,-2.2521,-2.2541,-2.2528,-2.2545,-2.255,-2.2529,-2.2551,-2.2554,-2.2559,-2.2563,-2.255,-2.2575,-2.2575,-2.2604,-2.2617,-2.2621,-2.2627,-2.2611,-2.2666,-2.2671,-2.2676,-2.2693,-2.2699,-2.2619,-2.2618,-2.2618,-2.2618,0,-2.2574,-2.2589,-2.2606,-2.2612,-2.2619,-2.2638,-2.2629,-2.2638,-2.2629,-2.2624,-2.2647,-2.2647,-2.2657,-2.2664,-2.2655,-2.2692,-2.2684,-2.2669,-2.2643,-2.2686,-2.2701,-2.2707,-2.2622,-2.2621,-2.262,-2.262,0,0,-2.2641,-2.2641,-2.2647,-2.2649,-2.2651,-2.2662,-2.2682,-2.2691,-2.2699,-2.2705,-2.272,-2.2739,-2.2725,-2.273,-2.2721,-2.2736,-2.2776,-2.2719,-2.2719,-2.2729,-2.2817,-2.2827,-2.2835,-2.2767,-2.2768,-2.2769,-2.2816,0,-2.2686,-2.2718,-2.2708,-2.274,-2.2754,-2.2735,-2.2752,-2.2755,-2.2752,-2.2763,-2.276,-2.2773,-2.2754,-2.2757,-2.2771,-2.2768,-2.2793,-2.2765,-2.2781,-2.2782,-2.2779,-2.2843,-2.2854,-2.2898,-2.2822,-2.2823,-2.2824,0,-2.2743,-2.2751,-2.2784,-2.2785,-2.279,-2.2805,-2.2813,-2.2825,-2.2829,-2.2825,-2.2832,-2.282,-2.2839,-2.2816,-2.2843,-2.2824,-2.283,-2.283,-2.2831,-2.2831,-2.2804,-2.2843,-2.2912,-2.2918,-2.2833,-2.2833,-2.2832,0,-2.2787,-2.2806,-2.2829,-2.2832,-2.2833,-2.2844,-2.2845,-2.2847,-2.2854,-2.2862,-2.2867,-2.2877,-2.2883,-2.2891,-2.2883,-2.2867,-2.2911,-2.2887,-2.2909,-2.2909,-2.2917,-2.2917,-2.2987,-2.2924,-2.2924,-2.2924,-2.2924,0,-2.2838,-2.2859,-2.2848,-2.2862,-2.2886,-2.2875,-2.2898,-2.2898,-2.29,-2.2914,-2.2899,-2.2913,-2.2902,-2.2914,-2.2908,-2.2931,-2.2934,-2.2932,-2.293,-2.2933,-2.2933,-2.2935,-2.2931,-2.2926,-2.2925,-2.2925,-2.2925,0,-2.289,-2.2884,-2.2907,-2.2907,-2.2907,-2.2925,-2.2925,-2.2938,-2.2934,-2.2952,-2.2955,-2.295,-2.2964,-2.2958,-2.2973,-2.2969,-2.2998,-2.2993,-2.2996,-2.2994,-2.3016,-2.3014,-2.309,-2.3099,-2.3031,-2.3032,-2.3033,0,-2.2922,-2.2938,-2.294,-2.2948,-2.295,-2.2963,-2.297,-2.2961,-2.2969,-2.2975,-2.2988,-2.3001,-2.301,-2.3034,-2.3032,-2.3043,-2.3037,-2.3063,-2.3039,-2.3041,-2.3036,-2.3035,-2.3036,-2.3067,-2.3068,-2.3069,-2.3069,0,-2.298,-2.2976,-2.2987,-2.2997,-2.3006,-2.3013,-2.3019,-2.3027,-2.3018,-2.3028,-2.3042,-2.305,-2.3065,-2.3078,-2.3089,-2.3091,-2.3079,-2.3078,-2.3083,-2.3085,-2.3086,-2.3085,-2.3008,-2.3075,-2.3075,-2.3074,-2.3074,-2.3074,-2.3022,-2.3035,-2.3039,-2.3051,-2.3055,-2.3062,-2.3074,-2.3073,-2.3084,-2.3096,-2.309,-2.3107,-2.3112,-2.3124,-2.3128,-2.3141,-2.3131,-2.3139,-2.3141,-2.3143,-2.3145,-2.3085,-2.3143,-2.3143,-2.3143,-2.3143,-2.3143,0,-2.3078,-2.3079,-2.3091,-2.31,-2.3111,-2.3099,-2.3106,-2.3115,-2.313,-2.3135,-2.3145,-2.3162,-2.3175,-2.3175,-2.3187,-2.3198,-2.3193,-2.3201,-2.32,-2.32,-2.3154,-2.3147,-2.3205,-2.3205,-2.3205,-2.3205,-2.3205,-2.3205,-2.3108,-2.313,-2.3127,-2.3151,-2.3152,-2.3168,-2.3173,-2.3179,-2.3184,-2.3203,-2.3214,-2.3214,-2.3217,-2.3229,-2.3241,-2.3241,-2.3246,-2.3256,-2.3254,-2.321,-2.3204,-2.3197,-2.3191,-2.3257,-2.3258,-2.3299,-2.3299,-2.3299]},{"header":{"parameterUnit":"m.s-1","parameterCategory":1,"la1":30.2991,"la2":30.254,"lo1":-89.0895,"lo2":-89.0444,"dy":0.0017,"dx":0.0017,"nx":28,"ny":28,"refTime":"2025-03-18T21:00:00:Z","depth":0,"parameterNumber":3,"parameterNumberName":"V-component_of_WINDS"},"data":[0,0,0,0,0,0,0,0,0,0,0,0,0,0,0,0,0,0,0,0,0,0,0,0,0,0,0,0,0,0,0,0,0,0,0,0,0,0,0,0,0,0,0,0,0,0,0,0,0,0,0,0,0,0,0,0,0,0,4.1428,4.1428,0,4.1418,4.1418,4.1418,4.1468,4.147,4.1471,4.1473,4.1457,4.1456,4.1454,0,0,0,0,0,0,0,0,0,0,0,0,0,4.1488,4.1486,4.1428,4.1428,4.1428,4.1418,4.1418,4.1418,4.1468,4.147,4.1472,4.1473,4.1458,4.1456,4.1454,0,0,0,0,0,0,0,0,0,0,0,0,0,4.1468,4.1486,4.1428,4.1452,4.1454,4.1418,4.1418,4.1418,4.1468,4.147,4.1472,4.1474,4.1459,4.1456,4.1453,4.1393,0,0,4.1445,4.1444,0,0,0,0,0,0,0,0,4.1469,4.1466,4.1449,4.145,4.1453,4.1447,4.1434,4.1409,4.1467,4.1462,4.1473,4.1475,4.1452,4.145,4.1443,4.1392,4.1391,4.1445,4.1443,4.1442,4.1441,0,0,0,0,0,0,0,4.147,4.1467,4.1424,4.1448,4.1451,4.1462,4.1462,4.1429,4.1445,4.1463,4.1467,4.1465,4.1453,4.1445,4.1443,4.1391,4.1445,4.1443,4.1441,4.144,4.1292,4.129,0,0,0,0,0,0,4.1469,4.1467,4.1425,4.1424,4.1467,4.1459,4.1459,4.1447,4.1445,4.1447,4.1463,4.1468,4.1449,4.1446,4.1443,4.1373,4.1442,4.144,4.1438,4.1294,4.1291,4.1289,0,0,0,0,0,0,4.147,4.1465,4.1425,4.1447,4.1443,4.1456,4.1442,4.1445,4.1437,4.1446,4.1448,4.1453,4.145,4.1446,4.1406,4.1373,4.1439,4.1436,4.1297,4.1293,4.129,4.1231,0,0,0,0,0,0,4.1472,4.1465,4.1443,4.1446,4.1441,4.1389,4.144,4.1443,4.1433,4.1439,4.1436,4.1438,4.1452,4.1409,4.1403,4.137,4.1434,4.13,4.1295,4.1291,4.1236,4.1226,4.1218,0,0,0,0,0,4.1474,4.1425,4.1441,4.1436,4.1414,4.1387,4.1384,4.1403,4.143,4.1408,4.1413,4.1438,4.1378,4.1405,4.1398,4.1364,4.1302,4.1297,4.1292,4.124,4.1228,4.1218,0,0,0,0,0,0,4.1415,4.1426,4.1444,4.1395,4.139,4.1396,4.1367,4.1389,4.1374,4.138,4.1402,4.1401,4.1357,4.1356,4.1386,4.1306,4.1344,4.1338,4.1308,4.1296,4.1287,4.1288,4.1432,0,0,0,0,0,4.1397,4.1376,4.1386,4.1341,4.1338,4.1353,4.1342,4.1357,4.1352,4.135,4.1352,4.1345,4.1325,4.1311,4.1292,4.1237,4.1237,4.121,4.1201,4.1193,4.1187,4.1159,4.1147,4.1272,4.1272,4.1272,0,0,4.1358,4.1361,4.1346,4.133,4.1328,4.1304,4.1351,4.1323,4.1306,4.1345,4.1307,4.1309,4.1303,4.1255,4.1234,4.1253,4.1153,4.1187,4.1181,4.1178,4.1152,4.114,4.113,4.1268,4.1269,4.1269,0,0,4.1276,4.1276,4.124,4.1238,4.1235,4.1246,4.1237,4.124,4.1243,4.1207,4.1236,4.1215,4.1179,4.1174,4.1166,4.1085,4.1107,4.1078,4.1029,4.1002,4.0992,4.0983,4.0954,4.0944,4.1072,4.1072,4.1072,0,4.1227,4.1195,4.1218,4.119,4.1182,4.1219,4.1183,4.1179,4.1169,4.1162,4.1185,4.1142,4.114,4.1092,4.1073,4.1065,4.1056,4.1078,4.0992,4.0983,4.0975,4.0948,4.0937,4.1068,4.1069,4.1069,4.1069,0,4.1136,4.1112,4.1084,4.1076,4.1065,4.1032,4.1051,4.1037,4.1053,4.1062,4.1024,4.1024,4.1007,4.0996,4.1011,4.0951,4.0963,4.0988,4.1027,4.096,4.0935,4.0924,4.1063,4.1065,4.1066,4.1066,0,0,4.1014,4.1022,4.1011,4.1009,4.101,4.0992,4.0961,4.0947,4.0934,4.0927,4.0902,4.0872,4.0896,4.0888,4.0903,4.0878,4.0815,4.0907,4.0907,4.089,4.0749,4.073,4.0717,4.083,4.0828,4.0827,4.0749,0,4.0934,4.0884,4.0905,4.0852,4.0832,4.0868,4.0841,4.0838,4.0846,4.0828,4.0836,4.0815,4.0848,4.0843,4.0821,4.0827,4.0787,4.0833,4.0806,4.0805,4.0806,4.0704,4.0683,4.061,4.074,4.0738,4.0737,0,4.0833,4.0824,4.077,4.0777,4.0769,4.0745,4.0734,4.0717,4.0715,4.0722,4.0714,4.0735,4.0705,4.0745,4.0704,4.0735,4.0726,4.0727,4.0725,4.0722,4.0766,4.0699,4.0587,4.0576,4.0721,4.0723,4.0724,0,4.075,4.0725,4.069,4.0687,4.0693,4.0675,4.0677,4.0677,4.0668,4.0658,4.0652,4.0638,4.063,4.0619,4.0636,4.0663,4.0592,4.0633,4.0597,4.0596,4.0579,4.058,4.0465,4.0574,4.0574,4.0574,4.0574,0,4.0658,4.0623,4.0653,4.0631,4.0594,4.0619,4.0581,4.0586,4.0586,4.0566,4.0595,4.0575,4.0599,4.0581,4.0593,4.0558,4.0554,4.0558,4.0562,4.0555,4.0555,4.0549,4.0554,4.0571,4.0572,4.0572,4.0573,0,4.0559,4.0577,4.0541,4.0551,4.0553,4.0525,4.0533,4.0513,4.0524,4.0497,4.0493,4.0508,4.0489,4.0505,4.0485,4.0494,4.0447,4.0458,4.0448,4.0451,4.0414,4.0417,4.029,4.0275,4.0394,4.0392,4.0392,0,4.0499,4.0473,4.0482,4.0471,4.0472,4.0454,4.0445,4.0469,4.0459,4.0456,4.0436,4.042,4.0408,4.0375,4.0384,4.0369,4.038,4.0336,4.0377,4.0372,4.0379,4.038,4.0378,4.0327,4.0326,4.0325,4.0324,0,4.039,4.0401,4.0389,4.0379,4.0369,4.0362,4.0358,4.0347,4.0372,4.0359,4.034,4.0331,4.0313,4.0296,4.0285,4.0285,4.0308,4.0311,4.0302,4.0295,4.0291,4.0293,4.0425,4.0314,4.0315,4.0316,4.0316,4.0316,4.0309,4.0289,4.0292,4.0277,4.0277,4.0273,4.0255,4.0265,4.0251,4.0239,4.0254,4.0231,4.0231,4.0219,4.0217,4.0199,4.0217,4.0203,4.02,4.0196,4.0191,4.0294,4.0197,4.0197,4.0198,4.0198,4.0198,0,4.0202,4.0207,4.0193,4.0188,4.0176,4.0202,4.0198,4.0187,4.0167,4.0166,4.0155,4.0134,4.0118,4.0127,4.0114,4.0098,4.0108,4.0093,4.0094,4.0094,4.0176,4.0185,4.0085,4.0085,4.0085,4.0085,4.0085,4.0085,4.0145,4.0113,4.0125,4.0093,4.0098,4.0078,4.0074,4.007,4.0069,4.0046,4.0034,4.0041,4.0043,4.0031,4.0017,4.002,4.0014,3.9995,4.0002,4.0077,4.0088,4.0099,4.0108,3.9994,3.9994,3.9922,3.9922,3.9921]}]]